Погода в Филадельфии

США     39°57′04″N   75°09′50″W
темп.,
°C
ветер,
м/с
пор.,
м/с
влажн.,
%
обл.,
%
осадки,
мм/ч
давл.,
гПа
погр.,
м
20 апреля, вт
вт2023:00+11юз27771 0.0 1013254
02:00+10юз38792 0.0 1013266
05:00+9юз29820 0.0 1013251
08:00+12з311685 0.0 1015395
11:00+17з474999 0.0 10161080
14:00+20з484156 0.0 10152092
17:00+17зсз3551100 0.0 1014747
20:00+16ссв1154100 0.0 101431
21 апреля, ср
ср2123:00+15ююв386185 0.0 1014561
02:00+13ю41567100 0.0 1012689
05:00+12ю4157883 0.0 1010783
08:00+13ю51378100 0.3 1008699
11:00+17ююз71464100 0.1 10051244
14:00+18зюз81371100 2.0 10021945
17:00+9зсз815635 2.0 10061345
20:00+7сз6135612 2.0 10091731
22 апреля, чт
чт2223:00+5зсз5135532 0.1 10111627
02:00+3зсз611615 0.1 10121342
05:00+1зсз613525 0.0 10131319
08:00+2з613500 0.0 10151356
11:00+7зсз71230100 0.0 10152653
14:00+9зсз81327100 0.0 10143286
17:00+11з71432100 0.0 10142993
20:00+8зсз513455 0.0 10152160
23 апреля, пт
пт2323:00+6зсз511533 0.0 10171653
02:00+5з412590 0.0 1018893
05:00+5з514633 0.0 1017834
08:00+6з614570 0.0 1018779
11:00+11зсз711415 0.0 10181331
14:00+16зсз6103383 0.0 10172436
17:00+17зсз6103222 0.0 10162608
20:00+14зюз385083 0.0 1017431
24 апреля, сб
сб2423:00+12з38595 0.0 1018322
02:00+10зсз28612 0.0 1019226
05:00+9з256345 0.0 1019138
08:00+10з24545 0.0 1020199
11:00+16з2438100 0.0 10191590
14:00+18зюз3431100 0.0 10182041
17:00+19юз3431100 0.0 10161847
20:00+16ююз3647100 0.0 1015490